Regional Weather Roundup
Issued by NWS Newport/Morehead, NC

Current Version | Previous Version | Text Only | Print | Product List | Glossary On
Versions: 1 2 3 4 5 6 7 8 9 10 11 12 13 14 15 16 17 18 19 20 21 22 23 24 25 26 27 28 29 30 31 32 33 34 35 36 37 38 39 40 41 42 43 44 45 46 47 48 49 50
431
ASUS42 KMHX 231925
RWRMHX
WEATHER ROUNDUP FOR EASTERN NORTH CAROLINA
NATIONAL WEATHER SERVICE NEWPORT/MOREHEAD CITY NC
300 PM EDT SUN APR 23 2017

NOTE: "FAIR" INDICATES FEW OR NO CLOUDS BELOW 12,000 FEET
WITH NO SIGNIFICANT WEATHER AND/OR OBSTRUCTIONS TO VISIBILITY

NCZ015>017-031-032-045>047-102-103-232000-
NORTH COAST

CITY           SKY/WX    TMP DP  RH WIND       PRES   REMARKS
EDENTON        CLOUDY    60  55  83 E8G17     30.03F
ELIZABETH CITY LGT RAIN  57  54  89 NE20      30.05F
KITTY HAWK     LGT RAIN  56  53  89 N13G21    30.01F
MANTEO         CLOUDY    56  52  86 NE20      30.02F

$$

NCZ045>047-081-094-103-104-232000-
CENTRAL COAST

CITY           SKY/WX    TMP DP  RH WIND       PRES   REMARKS
FRISCO         CLOUDY    65  57  75 NE13G26   29.97F HAZE

$$

NCZ095-097-098-100-101-232000-
SOUTHERN COAST

CITY           SKY/WX    TMP DP  RH WIND       PRES   REMARKS
BEAUFORT       CLOUDY    65  61  87 NE14G22   29.96F
CEDAR ISLAND   NOT AVBL
JACKSONVILLE   CLOUDY    62  61  96 NE10      29.95F
PINEY ISLAND   CLOUDY   N/A N/A N/A NE16G24   29.97F
WILMINGTON     CLOUDY    64  62  93 NE14      29.93F


$$

NCZ011>013-027>030-043-044-078>080-089-090>093-098-232000-
COASTAL PLAIN

CITY           SKY/WX    TMP DP  RH WIND       PRES   REMARKS
AHOSKIE          N/A     55  50  83 N8        30.04S
CLINTON        CLOUDY    59  57  93 NE6       29.97F
ELIZABETHTOWN  CLOUDY    61  58  90 CALM      29.94F
GOLDSBORO      CLOUDY    58  58 100 NE10      29.97F
GREENVILLE     CLOUDY    59  54  82 NE14      30.02F
HAVELOCK       RAIN      63  58  83 NE13      29.97
KENANSVILLE    CLOUDY    59  55  88 E5        29.97F
KINSTON        CLOUDY    59  55  88 NE16G24   30.00F FOG
NEW BERN       CLOUDY    59  58  96 NE14      29.99F
RICHLANDS      CLOUDY    60  58  92 NE10      29.97F
ROCKY MOUNT    CLOUDY    57  52  83 NE8       30.02F
WASHINGTON     CLOUDY    58  54  85 NE10G17   30.00F
WHITEVILLE     CLOUDY    63  59  87 NE9       29.92F

$$

AMZ130-135-150-152-154-156-158-170-250-252-270-ANZ085-086-088-633-658-670-232000-
MARINE OBSERVATIONS

STATION/POSITION TIME  TEMP    WIND        PRES    WAVE   SWELL
                       AIR SEA DIR/SP/G            HT/PER HT/PER
                 (UTC) (F)     (DEG/KT/KT) (MB)    (FT/S) (FT/S)
CHESAPEAKE LIGHT NOT AVBL
64 E VA BEACH    1850   55 54   30/ 16/ 17 1017.4    5/11   3/11
DUCK             1900   55 63   20/ 23/ 27 1016.3
2 E DUCK         1900      60                N/A     5/ 6   2/12
OREGON INLET     1900   56 59   10/ 14/ 20 1016.2
13E OREGON INLT  1848      56                N/A     6/ 7   3/12
HATTERAS CG      1900   62 68   30/ 13/ 23 1014.7
DIAMOND BUOY     1850   66 75   20/ 17/ 23 1014.2    6/11   3/11
CAPE LOOKOUT     1900   64      40/ 18/ 21 1014.0
BEAUFORT LAB     1900   64 67   30/ 12/ 15 1013.6
30 SE NEW RVR IN 1908   66      60/ 17/ 25 1013.2
30 SE NEW RVR IN 1843      71                N/A     5/ 5   2/11
27 SE WRIGHTSVLE 1908   68 71   80/ 17/ 25 1012.7
5 SE WRIGHTSVLE  1908   66 68   80/ 14/ 23 1013.2
225 S CAPE HAT   1850   73 75  160/ 10/ 14 1014.2    4/12   3/12
41 SE CHARLESTON 1910   76 75  160/ 12/ 14 1010.5

$$




USA.gov is the U.S. government's official web portal to all federal, state and local government web resources and services.